Location: ????
(31.6270°N, 34.6033°E)
Time: 20:22:27
(UTC+00:00)

Daily predictions for brighter satellites

Satellite Brightness Start Highest point End
(mag) Time Altitude Azimuth Time Altitude Azimuth Time Altitude Azimuth
Milstar 3 4.3 16:57:27 10° WSW 17:06:57 76° S 17:26:13 10° E
SL-16 R/B 2.3 17:08:17 10° SSW 17:13:57 89° WNW 17:19:39 10° NNE
EXPRESS MD2 4.0 17:14:04 10° WNW 17:17:01 48° SW 17:22:23 10° SSE
CZ-2C R/B 2.8 17:12:37 10° NNE 17:17:48 50° E 17:22:51 10° S
Cosmos 1356 Rocket 3.8 17:14:46 10° N 17:18:50 44° E 17:22:48 10° SSE
Cosmos 1809 Rocket 4.5 17:13:15 10° S 17:19:25 81° E 17:25:35 10° N
Ariane Rocket 3.1 17:14:58 10° SSE 17:20:01 67° ENE 17:25:04 10° N
FALCON 9 R/B 0.9 17:17:30 10° WNW 17:21:03 58° N 17:23:13 10° E
Delta 2 Rocket 3.8 17:18:54 10° W 17:22:22 46° N 17:25:37 10° ENE
ATLAS 5 CENTAUR R/B 1.6 17:19:07 10° S 17:22:56 46° ESE 17:26:58 10° NE
Cosmos 2285 Rocket 4.0 17:19:54 10° NNW 17:26:13 75° ENE 17:32:29 10° SSE
OAO 2 Rocket 3.5 17:22:17 10° WSW 17:27:34 82° NNW 17:32:54 10° ENE
Cosmos 1602 Rocket 4.3 17:23:42 10° SSE 17:27:40 34° E 17:31:39 10° NNE
Cosmos 1726 Rocket 4.0 17:24:46 10° NNW 17:29:11 67° W 17:33:35 10° S
DMSP B5D2-2 4.1 17:24:12 10° NNE 17:29:23 66° ESE 17:34:32 10° S
MOS 1 Rocket 4.1 17:32:31 10° N 17:37:18 62° WNW 17:42:22 10° SSW
Cosmos 1125 Rocket 4.3 17:33:05 10° N 17:37:51 34° ENE 17:41:59 13° SE
H-2A R/B 3.0 17:34:24 10° S 17:39:39 51° W 17:44:57 10° NNW
Cosmos 2227 4.4 17:40:22 10° NNW 17:46:08 79° WSW 17:51:50 10° SSE
USA 229 DEB 4.5 17:39:56 10° NW 17:47:14 58° WSW 17:54:44 10° SSE
USA 229 4.5 17:40:01 10° NW 17:47:19 59° WSW 17:54:51 10° SSE
SPOT 3 Rocket 3.8 17:42:58 11° SSE 17:47:46 51° ENE 17:52:49 10° N
CZ-2C R/B 3.8 17:43:10 10° NNE 17:47:58 84° ESE 17:52:43 10° SSW
Cosmos 2298 Rocket 4.0 17:44:56 10° NNW 17:50:17 87° ENE 17:55:30 10° SSE
SL-08 R/B 4.5 17:44:15 10° S 17:50:29 73° E 17:56:41 10° N
MONITOR-E 3.8 17:48:49 12° S 17:51:01 68° W 17:53:29 10° NNW
Resurs 01 Rocket 2.3 17:54:03 18° SE 17:56:49 37° ENE 18:00:54 10° N
NOSS 3-1 (A) 4.5 17:49:34 10° NW 17:57:38 71° WSW 18:06:20 11° SSE
NOSS 3-3 (A) 4.3 17:52:35 10° S 17:57:40 36° ESE 18:03:08 10° NE
NOSS 3-3 (C) 4.3 17:52:42 10° S 17:57:46 36° ESE 18:03:15 10° NE
Cosmos 2322 Rocket 3.6 17:55:24 10° SW 18:00:38 41° WNW 18:05:55 10° N
Meteor 1-21 Rocket 4.3 17:57:19 10° S 18:03:10 75° E 18:09:05 10° NNE
Cosmos 1300 4.1 18:02:28 10° NNW 18:05:59 37° W 18:09:31 10° SSW
Cosmos 783 Rocket 4.4 18:05:08 10° S 18:10:22 73° ESE 18:15:35 10° NNE
SL-24 R/B - RUBIN 2 4.3 18:04:57 10° SSW 18:10:37 85° ESE 18:17:02 10° NNE
Cosmos 1758 Rocket 3.7 18:10:05 18° SSE 18:13:13 56° E 18:17:37 10° NNE
IUS-9 SRM-1 3.5 18:18:21 10° WSW 18:19:05 13° SW 18:19:05 13° SW
Cosmos 1328 4.0 18:18:50 32° SSE 18:20:16 50° E 18:24:07 10° NNE
COSMOS 2428 3.1 18:19:57 22° SSE 18:23:08 41° ESE 18:28:24 10° NE
Cosmos 1745 Rocket 4.0 18:17:05 10° S 18:23:15 84° W 18:29:31 10° N
Cosmos 1455 2.4 18:21:06 10° N 18:24:51 53° E 18:25:46 42° SE
Cosmos 2322 3.6 18:20:13 10° SSW 18:25:55 81° ESE 18:31:40 10° NNE
SL-08 ROCKET BODY 4.5 18:20:16 10° S 18:26:10 78° W 18:32:11 10° N
MetOp-B 4.4 18:25:30 30° SE 18:27:57 54° ENE 18:33:09 10° N
Resurs 1-3 4.3 18:26:38 17° S 18:29:50 51° W 18:34:06 10° NNW
DELTA 2 R/B (1) 3.5 18:25:01 10° WSW 18:30:36 90° NNW 18:36:13 10° ENE
Cosmos 1703 3.1 18:29:36 31° S 18:31:21 86° E 18:35:14 10° N
OAO 3 Rocket 3.4 18:27:42 10° WNW 18:32:35 70° NNE 18:35:05 29° E
Cosmos 773 Rocket 3.9 18:28:59 11° S 18:34:01 78° ESE 18:39:19 10° NNE
Cosmos 2237 Rocket 4.0 18:36:08 15° ENE 18:36:08 15° ENE 18:38:02 10° ENE
Cosmos 2219 Rocket 2.1 18:30:58 17° S 18:35:15 61° ESE 18:40:45 10° NNE
Cosmos 1953 Rocket 3.7 18:35:47 45° SE 18:36:31 51° E 18:40:43 10° NNE
ERS-1 Rocket 4.2 18:36:49 24° E 18:37:37 25° ENE 18:41:39 10° NNE
Cosmos 2333 4.2 18:32:13 10° SSW 18:37:49 82° WNW 18:43:30 10° NNE
Cosmos 2360 Rocket 3.6 18:32:41 10° SW 18:37:54 38° WNW 18:43:09 10° N
Cosmos 2263 Rocket 3.8 18:33:14 10° NW 18:37:56 29° WSW 18:42:37 10° SSW
USA 215 3.2 18:33:28 10° NE 18:40:02 85° SE 18:46:34 10° SW
BREEZE M DEB (TANK) 2.9 18:37:11 10° SSW 18:40:22 64° SE 18:50:15 10° NE
SPOT 5 4.2 18:43:58 24° E 18:44:27 25° ENE 18:48:24 10° NNE
Cosmos 1461 4.2 18:41:28 10° NW 18:45:53 40° WSW 18:47:49 27° SSW
Landsat 7 3.9 18:47:15 48° ESE 18:48:12 59° ENE 18:52:53 10° N
Atlas Centaur 2 2.3 18:42:56 10° W 18:48:40 80° S 18:52:05 32° ESE
Cosmos 2333 Rocket 2.1 18:43:07 10° SSW 18:48:47 90° ESE 18:54:31 10° NNE
Cosmos 1825 Rocket 4.0 18:49:13 26° SSW 18:51:34 61° W 18:55:59 10° N
NOSS 0 Rocket 4.3 18:54:30 40° ESE 18:54:44 40° ESE 19:00:25 10° NE
H-2A ROCKET BODY 3.5 18:50:20 10° W 18:55:23 61° S 19:06:44 24° ESE
BREEZE-M DEB (TANK) 4.4 18:48:41 10° NW 18:56:05 32° WSW 18:57:15 27° SSW
ATLAS CENTAUR R/B 3.8 18:56:06 10° W 18:58:38 21° SW 18:59:12 20° SW
Spot 2 Rocket 3.4 18:59:14 54° SSE 19:00:27 87° ENE 19:05:34 10° NNW
Delta 2 Rocket 3.9 19:01:33 10° WNW 19:04:23 43° NNW 19:04:23 43° NNW
BREEZE-M DEB (TANK) 3.8 19:02:42 10° NW 19:06:02 46° NE 19:06:37 43° ENE
IGS 5A 3.3 19:06:00 79° SW 19:06:06 81° W 19:10:16 10° NNW
Cosmos 1709 Rocket 4.3 19:04:01 22° SSW 19:08:11 66° W 19:14:30 10° N
USA 81 3.9 19:08:09 63° SSE 19:08:56 77° E 19:14:12 10° N
CARTOSAT-1 4.1 19:12:34 48° NE 19:12:34 48° NE 19:16:12 10° N
OAO 2 Rocket 3.9 19:07:25 10° W 19:12:40 59° N 19:14:42 36° ENE
Cosmos 1315 Rocket 4.2 19:11:26 10° N 19:14:04 31° NE 19:14:04 31° NE
Cosmos 2278 Rocket 3.9 19:12:36 10° NNE 19:16:29 19° ENE 19:17:00 18° ENE
Cosmos 1844 Rocket 2.6 19:13:32 10° NNW 19:19:06 73° WSW 19:19:57 61° SSW
SPOT 1/Viking Rocket 3.4 19:20:05 68° SSW 19:20:41 78° WSW 19:25:51 10° NNW
Cosmos 2184 Rocket 4.0 19:24:07 57° ESE 19:24:25 57° E 19:30:32 10° NNE
Resurs 01 Rocket 4.1 19:31:37 12° WSW 19:33:23 14° W 19:35:46 10° WNW
Cosmos-2242 4.3 19:30:56 10° NNW 19:34:50 33° W 19:35:05 33° W
Terra 2.4 19:36:04 50° NNE 19:36:04 50° NNE 19:39:54 10° N
Cosmos 923 Rocket 4.2 19:36:06 63° NE 19:36:06 63° NE 19:40:35 10° NNE
Cosmos 1400 Rocket 4.5 19:33:20 10° NNW 19:36:24 28° W 19:36:24 28° W
Cosmos 2221 4.0 19:35:54 10° N 19:38:23 30° NNE 19:38:23 30° NNE
Cosmos 2344 3.3 19:55:08 66° S 19:56:17 78° ESE 20:03:50 10° NNE
Meteor 2-17 Rocket 4.3 19:59:28 82° NW 19:59:28 82° NW 20:05:25 10° N
Cosmos 1980 3.9 20:00:03 67° WNW 20:00:03 67° WNW 20:05:34 10° NNE
Cosmos 2154 Rocket 4.0 20:05:01 71° NE 20:05:01 71° NE 20:10:37 10° N
Cosmos 2074 Rocket 4.4 20:09:51 51° WSW 20:10:31 53° W 20:16:35 10° N
Nadezhda 3 Rocket 4.4 20:05:06 10° N 20:10:35 55° NE 20:10:35 55° NE
ATLAS 2AS CENTAUR R/B 3.8 20:07:40 10° N 20:14:07 32° NE 20:15:15 30° ENE
ERS-1 Rocket 4.5 20:16:48 28° W 20:16:48 28° W 20:20:35 10° NW
Cosmos 2237 Rocket 2.9 20:17:54 49° WNW 20:18:01 49° WNW 20:23:33 10° N
ATLAS CENTAUR R/B 4.1 20:24:12 10° NW 20:24:46 14° NW 20:24:46 14° NW
Atlas Centaur 2 3.8 20:31:36 10° W 20:34:39 30° W 20:34:39 30° W
USA 267 3.9 20:49:19 46° NE 20:49:52 47° NE 20:56:05 10° NNW
MOS 1-B Rocket 4.5 20:49:23 10° N 20:56:07 63° NW 20:56:07 63° NW
Cosmos 2278 Rocket 3.5 20:55:22 10° NNW 20:58:50 35° NW 20:58:50 35° NW
SL-16 R/B 3.3 21:04:44 42° N 21:04:44 42° N 21:08:38 10° NNE
Cosmos 1943 Rocket 4.2 21:00:33 10° NNE 21:04:00 19° NE 21:04:00 19° NE
NOSS 3-4 (A) 4.3 21:30:15 10° NW 21:36:04 57° WNW 21:36:04 57° WNW
NOSS 3-4 (C) 4.3 21:30:21 10° NW 21:36:12 57° WNW 21:36:12 57° WNW
Cosmos 2369 Rocket 3.7 21:47:44 10° N 21:51:33 30° NE 21:51:33 30° NE
COSMOS 2455 3.8 21:54:15 10° NNW 21:58:41 43° NNE 21:58:41 43° NNE
ATLAS 2AS CENTAUR R/B 3.9 21:58:26 10° NW 22:02:39 32° WNW 22:02:39 32° WNW
CZ-2D R/B 4.3 22:13:49 10° NE 22:16:01 18° ENE 22:16:01 18° ENE
SL-16 R/B 4.5 22:17:47 18° E 22:19:33 20° ENE 22:23:50 10° NNE
CZ-4C R/B 4.0 22:19:44 10° NNW 22:26:53 42° NE 22:30:40 28° ESE
Cosmos 1943 4.5 22:41:16 35° NNW 22:41:16 35° NNW 22:45:08 10° N
Cosmos 1943 Rocket 3.8 22:42:59 10° NNW 22:45:29 26° NW 22:45:29 26° NW
Lacrosse 5 rocket 4.3 22:58:52 10° NNW 22:59:15 12° N 22:59:15 12° N
Cosmos 1238 Rocket 4.2 23:03:27 61° NNE 23:03:27 61° NNE 23:08:05 10° N
SeaSat 1 3.6 23:04:52 10° NNE 23:08:09 40° N 23:08:09 40° N
Resurs 1-4 Rocket 2.6 23:19:35 10° N 23:23:48 57° N 23:23:48 57° N
Centaur D-1A AC-31 4.2 13:53:05 10° SSW 23:24:58 67° SSW 23:33:10 10° ESE
Cosmos 2100 Rocket 4.3 23:25:47 58° ESE 23:26:08 59° E 23:32:19 10° NNE
ADEOS II 2.9 23:29:27 10° NNE 23:34:18 43° E 23:34:18 43° E
Lacrosse 5 2.7 23:36:20 45° NNW 23:36:20 45° NNW 23:40:27 10° NNE
Cosmos 2369 Rocket 4.2 23:32:00 10° NW 23:33:18 16° WNW 23:33:18 16° WNW
IRS-1D 3.8 23:36:56 10° NNE 23:41:15 59° ENE 23:41:15 59° ENE
DELTA 2 R/B (1) 3.5 23:51:38 81° NE 23:51:38 81° NE 23:57:12 10° ESE
AQUA 4.4 23:47:52 10° N 23:51:35 49° NNW 23:51:35 49° NNW
Okean 1-7 4.0 23:48:51 10° N 23:52:53 45° ENE 23:52:53 45° ENE
